Location: Shepherdstown, WV
(39.4326°N, 77.8042°W)
Time: 05:46:21
(UTC-04:00)

Vanguard 3 - Pass Details

Date: 04 August 2021
Orbit: 510 x 3260 km, 33.3° (Epoch: 21 September)

Event Time Altitude Azimuth Distance (km) Brightness Sun altitude
Rises 16:34:11 0° 217° (SW) 4,416 11.5 41.9°
Reaches altitude 10° 16:36:55 10° 209° (SSW) 3,760 11.2 41.4°
Maximum altitude 16:46:27 40° 144° (SE) 2,996 10.2 39.6°
Drops below altitude 10° 17:01:24 10° 84° (E) 5,852 11.1 36.8°
Sets 17:06:54 0° 78° (ENE) 7,095 11.4 35.7°
